EW2458 Weather Reports


Display with metric or nautical units.
time (UTC)temp
F
wind
direction
speed
MPH
gust
MPH
rain 1hr
in
rain 24hr
in
rain mn
in
humidity
%
barometer
mb
20181118034631 38 133 0.0 0.0 0.00 0.01 0.01 95 1022.5
20181118033115 38 133 0.0 1.0 0.00 0.01 0.01 96 1022.4
20181118031647 39 134 0.0 1.0 0.00 0.01 0.01 96 1022.5
20181118024545 40 133 0.0 1.0 0.00 0.01 0.01 95 1022.5
20181118023054 40 133 0.0 1.0 0.00 0.01 0.01 95 1022.4
20181118021534 40 134 0.0 1.0 0.00 0.01 0.01 94 1022.5
20181118020031 41 133 0.0 0.0 0.00 0.01 0.01 93 1022.4
20181118014524 42 133 0.0 1.0 0.00 0.01 0.01 93 1022.4
20181118013052 42 134 0.0 1.0 0.00 0.01 0.01 93 1022.5
20181118011529 43 135 0.0 1.0 0.00 0.01 0.01 93 1022.3
20181118010011 43 121 0.0 1.0 0.00 0.01 0.01 92 1022.3
20181118004502 44 136 0.0 1.0 0.00 0.01 0.01 90 1022.3
20181118003205 46 137 0.0 1.0 0.00 0.01 0.01 90 1022.2
20181118001618 46 127 1.0 1.0 0.00 0.01 0.01 89 1022.3
20181118000222 47 115 1.0 1.0 0.00 0.01 0.01 87 1022.2
20181117234630 48 122 0.0 1.0 0.00 0.01 0.01 85 1022.0
20181117233100 50 133 0.0 2.0 0.00 0.01 0.01 82 1021.9
20181117231600 50 128 2.0 3.0 0.00 0.01 0.01 81 1022.1
20181117230044 51 113 1.0 2.0 0.00 0.01 0.01 78 1022.3
20181117224533 55 130 0.0 1.0 0.00 0.01 0.01 71 1022.3
20181117223042 58 143 2.0 3.0 0.00 0.01 0.01 61 1022.4
20181117221525 61 297 0.0 1.0 0.00 0.01 0.01 54 1022.5
20181117220021 63 297 0.0 1.0 0.00 0.01 0.01 52 1022.9
20181117214539 63 269 0.0 3.0 0.00 0.01 0.01 51 1023.1
20181117213009 63 283 3.0 5.0 0.00 0.01 0.01 51 1023.2
20181117211509 63 283 3.0 5.0 0.00 0.01 0.01 50 1023.4
20181117210154 63 316 0.0 6.0 0.00 0.01 0.01 49 1023.6
20181117203108 64 232 3.0 5.0 0.00 0.01 0.01 46 1024.0
20181117201612 63 318 3.0 7.0 0.00 0.01 0.01 48 1024.3
20181117200112 63 243 2.0 8.0 0.00 0.01 0.01 47 1024.7
20181117194622 62 205 2.0 7.0 0.00 0.01 0.01 47 1024.9
20181117193046 63 235 3.0 6.0 0.00 0.01 0.01 47 1025.2
20181117191712 62 281 4.0 7.0 0.00 0.01 0.01 47 1025.4
20181117190103 62 298 4.0 8.0 0.00 0.01 0.01 48 1025.8
20181117184523 62 224 1.0 5.0 0.00 0.01 0.01 50 1026.0
20181117183028 61 313 2.0 6.0 0.00 0.01 0.01 50 1026.2
20181117181512 61 314 2.0 7.0 0.00 0.01 0.01 50 1026.6
20181117180006 60 288 2.0 6.0 0.00 0.01 0.01 53 1027.0
20181117174630 60 343 0.0 4.0 0.00 0.01 0.01 56 1027.4
20181117173102 59 64 0.0 3.0 0.00 0.01 0.01 55 1027.7
20181117171631 59 245 1.0 4.0 0.00 0.01 0.01 56 1028.2
20181117170107 -41 162 1.0 5.0 0.00 0.01 0.01 50 1028.6
20181117164555 0 356 0.0 3.0 0.00 0.01 0.01 1 1028.8
20181117163114 0 179 0.0 2.0 0.00 0.01 0.01 1 1028.8
20181117161631 0 349 1.0 4.0 0.00 0.01 0.01 1 1029.0
20181117160105 0 184 0.0 2.0 0.00 0.01 0.01 1 1028.9
20181117154552 0 95 0.0 1.0 0.00 0.01 0.01 1 1028.9
20181117153026 0 103 0.0 1.0 0.00 0.01 0.01 1 1028.8
20181117151533 0 314 0.0 0.0 0.00 0.01 0.01 1 1028.5
20181117150045 0 108 0.0 0.0 0.00 0.01 0.01 1 1028.2
20181117144510 0 125 0.0 1.0 0.01 0.01 0.01 1 1028.1
20181117141636 0 134 0.0 0.0 0.01 0.01 0.01 1 1027.8
20181117140159 0 134 0.0 1.0 0.01 0.01 0.01 1 1027.7
20181117134634 0 134 0.0 0.0 0.00 0.00 0.00 1 1027.6
20181117133205 0 134 0.0 0.0 0.00 0.00 0.00 100 1027.4
20181117131624 0 134 0.0 0.0 0.00 0.00 0.00 100 1027.0
20181117130124 0 134 0.0 0.0 0.00 0.00 0.00 100 1026.9
20181117124603 0 134 0.0 1.0 0.00 0.00 0.00 100 1026.9
20181117123054 0 134 0.0 0.0 0.00 0.00 0.00 100 1026.8
20181117121552 0 134 0.0 0.0 0.00 0.00 0.00 100 1026.6
20181117120039 0 134 0.0 0.0 0.00 0.00 0.00 100 1026.3
20181117114603 0 134 0.0 0.0 0.00 0.00 0.00 100 1026.2
20181117113013 0 134 0.0 0.0 0.00 0.00 0.00 100 1026.0
20181117111533 0 134 0.0 1.0 0.00 0.00 0.00 100 1025.8
20181117110007 0 134 0.0 0.0 0.00 0.00 0.00 100 1025.7
20181117104714 0 134 0.0 0.0 0.00 0.00 0.00 100 1025.5
20181117103156 0 134 0.0 0.0 0.00 0.00 0.00 100 1025.4
20181117101635 0 134 0.0 0.0 0.00 0.00 0.00 100 1025.3
20181117100140 0 134 0.0 0.0 0.00 0.00 0.00 100 1025.3
20181117094619 0 134 0.0 0.0 0.00 0.00 0.00 100 1025.1
20181117093102 0 134 0.0 0.0 0.00 0.00 0.00 100 1024.9
20181117091621 0 134 0.0 0.0 0.00 0.00 0.00 100 1024.8
20181117090053 0 134 0.0 0.0 0.00 0.00 0.00 100 1024.9
20181117084540 0 134 0.0 0.0 0.00 0.00 0.00 100 1024.8
20181117083036 0 134 0.0 1.0 0.00 0.00 0.00 100 1024.8
20181117080013 0 134 0.0 0.0 0.00 0.00 0.00 100 1024.5
20181117074509 0 134 0.0 0.0 0.00 0.00 0.00 100 1024.3
20181117071621 0 117 0.0 0.0 0.00 0.00 0.00 100 1024.3
20181117070149 0 117 0.0 0.0 0.00 0.00 0.00 100 1024.2
20181117064629 0 117 0.0 0.0 0.00 0.00 0.00 100 1024.1
20181117063124 0 117 0.0 0.0 0.00 0.00 0.00 100 1024.0
20181117061634 0 117 0.0 1.0 0.00 0.00 0.00 100 1023.9
20181117060110 0 117 0.0 0.0 0.00 0.00 0.00 100 1023.8
20181117054543 0 117 0.0 0.0 0.00 0.00 0.00 100 1023.7
20181117053034 0 117 0.0 0.0 0.00 0.00 0.00 100 1023.7
20181117051604 0 117 0.0 0.0 0.00 0.00 0.00 100 1023.6
20181117050028 0 117 0.0 1.0 0.00 0.00 0.00 100 1023.6
20181117044516 0 117 0.0 0.0 0.00 0.00 0.00 100 1023.6
20181117043012 0 117 0.0 0.0 0.00 0.00 0.00 100 1023.5
20181117041503 0 117 0.0 1.0 0.00 0.00 0.00 100 1023.4
20181117040132 0 117 0.0 0.0 0.00 0.00 0.00 100 1023.2